Location: Fontevrault
(47.1823°N, 0.0493°E)
Time: 11:22:23
(UTC+00:00)

Meteor 1-21 Rocket - Visible Passes

Search period start: 23 October 2021 00:00
Search period end: 02 November 2021 00:00
Orbit: 833 x 907 km, 81.2° (Epoch: 22 October)

Date Brightness Start Highest point End Pass type
(mag) Time Alt. Az. Time Alt. Az. Time Alt. Az.
23 Oct 7.4 05:16:37 10° ESE 05:19:20 14° E 05:22:04 10° NE visible
23 Oct 4.4 17:34:23 10° N 17:40:19 88° E 17:46:15 10° S visible
23 Oct 7.3 19:19:36 10° NW 19:22:49 15° W 19:26:02 10° WSW visible
24 Oct 7.4 05:10:17 10° ESE 05:13:09 14° E 05:16:02 10° NE visible
24 Oct 4.4 17:28:15 10° NNW 17:34:10 90° WSW 17:40:06 10° S visible
24 Oct 7.4 19:13:33 10° NW 19:16:38 15° W 19:19:44 10° WSW visible
25 Oct 7.4 05:03:58 10° ESE 05:06:57 15° E 05:09:59 10° NE visible
25 Oct 4.5 17:22:05 10° NNW 17:28:01 87° W 17:33:57 10° S visible
25 Oct 7.4 19:07:30 10° NW 19:10:27 14° W 19:13:25 10° WSW visible
26 Oct 7.3 04:57:39 10° ESE 05:00:46 15° E 05:03:56 10° NE visible
26 Oct 4.5 17:15:56 10° NNW 17:21:52 85° W 17:27:48 10° S visible
26 Oct 7.5 19:01:27 10° NW 19:04:16 14° W 19:07:07 10° WSW visible
27 Oct 7.3 04:51:20 10° ESE 04:54:35 16° E 04:57:53 10° NE visible
27 Oct 7.5 18:55:24 10° NW 18:58:06 13° W 19:00:47 10° WSW visible
28 Oct 7.3 04:45:02 10° ESE 04:48:24 16° E 04:51:49 10° NE visible
28 Oct 7.5 18:49:24 10° NW 18:51:55 13° W 18:54:27 10° WSW visible
29 Oct 7.2 04:38:43 10° ESE 04:42:13 17° E 04:45:44 10° NE visible
29 Oct 7.5 18:43:23 10° NW 18:45:44 13° W 18:48:05 10° WSW visible
30 Oct 7.1 04:32:26 10° ESE 04:36:02 17° E 04:39:41 10° NE visible
30 Oct 7.6 18:37:23 10° WNW 18:39:33 12° W 18:41:43 10° W visible
31 Oct 7.1 04:26:09 10° SE 04:29:51 18° E 04:33:36 10° NE visible
31 Oct 4.3 06:06:51 10° SSW 06:12:30 72° WNW 06:18:18 10° N visible
31 Oct 7.6 18:31:24 10° WNW 18:33:22 12° W 18:35:20 10° W visible
01 Nov 7.0 04:19:52 10° SE 04:23:40 19° E 04:27:31 10° NE visible
01 Nov 4.3 06:00:41 10° SSW 06:06:21 70° WNW 06:12:09 10° N visible
01 Nov 7.6 18:25:28 10° WNW 18:27:11 11° WNW 18:28:54 10° W visible
